This is the latest recevied weather packets stored in our database for station/object OM3WYM-13. If no packets are shown the sender has not sent any weather packets the latest 10 day(s).
| Time | Temp. | Humidity | Pressure | Rain* | Wind** | Luminosity | Snow |
|---|---|---|---|---|---|---|---|
| 1777639808 | 17.78° C | 29% | 1023.8 hPa | - | - | - | - |
| 1777639207 | 19.44° C | 28% | 1023.6 hPa | - | - | - | - |
| 1777638607 | 19.44° C | 29% | 1023.9 hPa | - | - | - | - |
| 1777638007 | 18.33° C | 30% | 1024.1 hPa | - | - | - | - |
| 1777637408 | 18.33° C | 30% | 1024.1 hPa | - | - | - | - |
| 1777636808 | 18.33° C | 32% | 1024.2 hPa | - | - | - | - |
| 1777636207 | 16.11° C | 34% | 1024.6 hPa | - | - | - | - |
| 1777635607 | 15.56° C | 33% | 1024.7 hPa | - | - | - | - |
| 1777635008 | 16.11° C | 33% | 1024.7 hPa | - | - | - | - |
| 1777634408 | 16.11° C | 33% | 1024.7 hPa | - | - | - | - |
| 1777633808 | 15.56° C | 33% | 1024.7 hPa | - | - | - | - |
| 1777633207 | 15° C | 33% | 1025.1 hPa | - | - | - | - |
| 1777632608 | 16.11° C | 32% | 1025 hPa | - | - | - | - |
| 1777632008 | 15° C | 32% | 1025.2 hPa | - | - | - | - |
| 1777631408 | 14.44° C | 32% | 1025.3 hPa | - | - | - | - |
| 1777630808 | 13.89° C | 31% | 1025.4 hPa | - | - | - | - |
| 1777630207 | 13.89° C | 30% | 1025.5 hPa | - | - | - | - |
| 1777629608 | 13.89° C | 30% | 1025.6 hPa | - | - | - | - |
| 1777629008 | 13.33° C | 29% | 1025.8 hPa | - | - | - | - |
| 1777628408 | 13.33° C | 30% | 1025.9 hPa | - | - | - | - |
| 1777627808 | 12.78° C | 31% | 1026.1 hPa | - | - | - | - |
| 1777627208 | 12.22° C | 32% | 1026.3 hPa | - | - | - | - |
| 1777626608 | 11.67° C | 32% | 1026.4 hPa | - | - | - | - |
| 1777626007 | 11.67° C | 34% | 1026.6 hPa | - | - | - | - |
| 1777625408 | 11.67° C | 34% | 1026.6 hPa | - | - | - | - |
* Rain since midnight (hover to see other rain measurements)
** Current wind speed in m/s (hover to see current wind gust speed)